Simultaneous Nadir Overpasses (SNOs) Predictions

Prediction of SNOs between AQUA and GOES-15 Satellite Orbit:

Table of predicted SNOs for the next 14.0 days since TLE Epoch: 4/20/2024
Index Date Time (AQUA) AQUA Lat,Lon GOES-15 Lat,Lon Distance(km) Time Diff (sec)
1 04/20/2024 10:07:24 -0.39, 59.82 -0.08, 61.32 171.05 80
2 04/22/2024 09:51:18 0.46, 63.75 -0.08, 61.34 274.48 80
3 04/22/2024 22:11:31 0.62, 58.86 0.07, 61.32 280.15 80
4 04/24/2024 21:55:22 -0.21, 62.81 0.07, 61.34 165.93 80
5 04/25/2024 10:15:45 -0.79, 57.87 -0.06, 61.38 399.10 80
6 04/27/2024 09:59:33 0.04, 61.83 -0.06, 61.42 47.15 80
7 04/29/2024 09:43:19 0.89, 65.80 -0.07, 61.46 493.69 80
8 04/29/2024 22:03:31 0.20, 60.92 0.06, 61.45 61.13 80
9 05/01/2024 21:47:15 -0.69, 64.89 0.06, 61.50 386.43 80
10 05/02/2024 10:07:35 -0.36, 59.97 -0.05, 61.54 177.83 80
